TimeEST,TemperatureF,Dew PointF,Humidity,Sea Level PressureIn,VisibilityMPH,Wind Direction,Wind SpeedMPH,Gust SpeedMPH,PrecipitationIn,Events,Conditions,WindDirDegrees,DateUTC
12:51 AM,57.9,48.9,72,29.98,10.0,SSW,13.8,-,N/A,,Overcast,210,2011-11-14 05:51:00
1:51 AM,57.9,46.9,67,29.97,10.0,SSW,17.3,25.3,N/A,,Overcast,210,2011-11-14 06:51:00
2:51 AM,57.0,46.0,67,29.94,10.0,SSW,12.7,19.6,N/A,,Partly Cloudy,210,2011-11-14 07:51:00
3:51 AM,55.9,45.0,67,29.94,10.0,SSW,13.8,19.6,N/A,,Partly Cloudy,200,2011-11-14 08:51:00
4:51 AM,55.9,44.1,64,29.94,10.0,SW,12.7,21.9,N/A,,Partly Cloudy,220,2011-11-14 09:51:00
5:51 AM,55.9,44.1,64,29.93,10.0,SSW,15.0,-,N/A,,Scattered Clouds,210,2011-11-14 10:51:00
6:51 AM,55.0,44.1,67,29.93,10.0,SW,12.7,-,N/A,,Scattered Clouds,220,2011-11-14 11:51:00
7:51 AM,57.0,44.1,62,29.94,10.0,SW,12.7,24.2,N/A,,Scattered Clouds,230,2011-11-14 12:51:00
8:51 AM,60.1,44.1,55,29.93,10.0,SW,10.4,19.6,N/A,,Scattered Clouds,230,2011-11-14 13:51:00
9:51 AM,62.1,45.0,53,29.92,10.0,SW,10.4,20.7,N/A,,Scattered Clouds,220,2011-11-14 14:51:00
10:51 AM,63.0,45.0,52,29.90,10.0,SW,12.7,-,N/A,,Mostly Cloudy,230,2011-11-14 15:51:00
11:51 AM,64.9,46.0,50,29.88,10.0,SW,13.8,19.6,N/A,,Mostly Cloudy,230,2011-11-14 16:51:00
12:51 PM,64.9,46.0,50,29.86,10.0,SSW,13.8,-,N/A,,Mostly Cloudy,210,2011-11-14 17:51:00
1:51 PM,64.0,46.0,52,29.85,10.0,South,10.4,-,N/A,,Mostly Cloudy,190,2011-11-14 18:51:00
2:51 PM,62.1,51.1,67,29.85,10.0,South,9.2,-,N/A,,Overcast,180,2011-11-14 19:51:00
3:51 PM,60.1,51.1,72,29.85,10.0,SSW,9.2,-,N/A,,Overcast,200,2011-11-14 20:51:00
4:51 PM,57.9,51.1,78,29.84,10.0,SSW,5.8,-,N/A,,Overcast,210,2011-11-14 21:51:00
5:51 PM,57.9,51.1,78,29.84,10.0,SW,9.2,-,0.00,,Overcast,220,2011-11-14 22:51:00
6:51 PM,57.0,52.0,83,29.83,10.0,SSW,9.2,-,N/A,,Mostly Cloudy,200,2011-11-14 23:51:00
7:51 PM,57.9,53.1,84,29.81,10.0,SSW,11.5,-,N/A,,Mostly Cloudy,200,2011-11-15 00:51:00
8:42 PM,57.2,53.6,88,29.81,9.0,SSW,8.1,-,N/A,,Mostly Cloudy,200,2011-11-15 01:42:00
8:51 PM,55.9,53.1,90,29.81,8.0,South,8.1,-,N/A,,Mostly Cloudy,190,2011-11-15 01:51:00
9:18 PM,57.2,53.6,88,29.79,8.0,SSW,9.2,-,N/A,,Scattered Clouds,200,2011-11-15 02:18:00
9:51 PM,55.9,53.1,90,29.79,9.0,South,8.1,-,N/A,,Scattered Clouds,180,2011-11-15 02:51:00
10:51 PM,57.9,53.1,84,29.77,10.0,SSW,11.5,-,N/A,,Mostly Cloudy,210,2011-11-15 03:51:00
11:51 PM,57.9,53.1,84,29.75,10.0,SSW,11.5,-,N/A,,Mostly Cloudy,200,2011-11-15 04:51:00